Starlink 34109

operational
NORAD ID: 63807 Int'l Des: 2025-092 Owner: SPXS Country: US Constellation: starlink
LEOCIRCULAR

Über Starlink 34109

Beschreibung wird geladen...

Live-Position

3D-Globus wird geladen...

Nächste Überflüge

Höhenverlauf

Altitude vs Time

uPlot chart will show altitude changes over time

Zweizeiliger Elementsatz

1 63807U 25092D 25351.21394808 .00026222 00000-0 95841-3 0 9997
2 63807 43.0011 278.1067 0001841 260.9648 99.0995 15.27601108 36006
Epoch: 17. Dez. 2025 • Age: 14 hours

Aktueller Status

Höhe 492.2 km
Geschwindigkeit 7.62 km/s
Subsatellitenpunkt -35.80°S, 147.12°W
Startdatum 4. Mai 2025
Alter 0.6 years
Typ internet

Technische Details

Klassifizierung Payload
Masse 575.00 kg
Trockenmasse 530.00 kg
Gesamtmasse 575.00 kg
Länge 0.30 m
Durchmesser 4.10 m
Spannweite 29.00 m
Form Box + pan
Hersteller SPXS
Bus-Typ Starlink V2MO
Phasenstatus In Orbit
Besitzer/Staat SPXS/US

Große Konstellationen

Loading constellations...